Weather History for KLOL - February, 2013

Change the Weather History Date:

Saturday, February 2, 2013

  Actual Average Record
Temperature  
Mean Temperature 32 °F -  
Max Temperature 46 °F 45 °F - (-1)
Min Temperature 17 °F 18 °F - (-1)
Degree Days  
Heating Degree Days 34    
Moisture  
Dew Point 24 °F    
Average Humidity 90    
Maximum Humidity 100    
Minimum Humidity 56    
Precipitation  
Precipitation 0.00 in - - ()
Sea Level Pressure  
Sea Level Pressure 30.39 in    
Wind  
Wind Speed 4 mph (SSW)    
Max Wind Speed 10 mph    
Max Gust Speed -    
Visibility 6 miles    
Events Fog    
Averages and records for this station are not official NWS values.
T = Trace of Precipitation, MM = Missing Value Source: NWS Daily Summary

Daily Weather History Graph

Daily Weather History Graph

Search for Another Location

Airport or City:

Trip Planner

Search our weather history database for the weather conditions in past years. The results will help you decide how hot, cold, wet, or windy it might be!

Date:

Astronomy

Feb. 02, 2013 Rise Set
Actual Time 7:01 AM PST 5:14 PM PST
Civil Twilight 6:33 AM PST 5:43 PM PST
Nautical Twilight 6:00 AM PST 6:15 PM PST
Astronomical Twilight 5:28 AM PST 6:47 PM PST
Moon No Moon Rise 10:15 AM PST
Length of Visible Light 11h 10m
Length of Day
10h 13m
Waning Gibbous, 58% of the Moon is Illuminated
Feb 2
Waning Gibbous
Feb 3
Last Quarter
Feb 9
New
Feb 17
First Quarter
Feb 25
Full

Hourly Weather History & Observations

Time (PST) Temp. Windchill Dew Point Humidity Pressure Visibility Wind Dir Wind Speed Gust Speed Precip Events Conditions
12:53 AM 23.0 °F 12.4 °F 21.9 °F 96% 30.41 in 10.0 mi SE 10.4 mph - N/A   Clear
1:53 AM 24.1 °F 19.7 °F 23.0 °F 96% 30.41 in 10.0 mi West 3.5 mph - N/A   Clear
2:16 AM 21.9 °F - 19.9 °F 92% 30.38 in 2.5 mi Calm Calm - N/A   Partly Cloudy
2:32 AM 21.9 °F 14.5 °F 21.9 °F 100% 30.38 in 5.0 mi SSW 5.8 mph - N/A   Partly Cloudy
2:53 AM 23.0 °F 14.7 °F 23.0 °F 100% 30.41 in 1.5 mi SW 6.9 mph - N/A   Partly Cloudy
2:57 AM 23.0 °F 17.0 °F 23.0 °F 100% 30.37 in 0.8 mi SW 4.6 mph - N/A   Mist
3:19 AM 21.9 °F 14.5 °F 21.0 °F 96% 30.37 in 1.2 mi SSW 5.8 mph - N/A   Partly Cloudy
3:22 AM 23.0 °F 14.7 °F 21.0 °F 92% 30.38 in 4.0 mi SSW 6.9 mph - N/A   Partly Cloudy
3:29 AM 23.0 °F 14.7 °F 21.9 °F 96% 30.38 in 1.8 mi South 6.9 mph - N/A   Partly Cloudy
3:42 AM 21.9 °F 17.2 °F 21.9 °F 100% 30.37 in 3.0 mi SE 3.5 mph - N/A   Partly Cloudy
3:46 AM 21.9 °F - 21.0 °F 96% 30.37 in 1.8 mi Calm Calm - N/A   Partly Cloudy
3:53 AM 19.9 °F - 19.9 °F 100% 30.42 in 1.0 mi Calm Calm - N/A   Mist
4:09 AM 21.0 °F - 21.0 °F 100% 30.37 in 0.2 mi Calm Calm - N/A Fog Light Freezing Fog
4:21 AM 21.0 °F - 21.0 °F 100% 30.37 in 0.5 mi Calm Calm - N/A Fog Light Freezing Fog
4:38 AM 21.0 °F 14.6 °F 21.0 °F 100% 30.37 in 2.5 mi West 4.6 mph - N/A   Mostly Cloudy
4:45 AM 21.0 °F 14.6 °F 21.0 °F 100% 30.37 in 10.0 mi WNW 4.6 mph - N/A   Mostly Cloudy
4:53 AM 21.9 °F 15.7 °F 21.0 °F 96% 30.41 in 10.0 mi WNW 4.6 mph - N/A   Scattered Clouds
5:53 AM 19.9 °F 13.4 °F 19.9 °F 100% 30.45 in 8.0 mi East 4.6 mph - N/A   Clear
6:01 AM 19.9 °F 12.1 °F 19.0 °F 96% 30.37 in 1.8 mi East 5.8 mph - N/A   Clear
6:09 AM 21.9 °F - 21.0 °F 96% 30.37 in 3.0 mi Calm Calm - N/A   Clear
6:40 AM 21.9 °F - 21.9 °F 100% 30.38 in 0.5 mi Calm Calm - N/A Fog Light Freezing Fog
6:46 AM 23.0 °F - 21.0 °F 92% 30.38 in 1.2 mi Calm Calm - N/A   Partly Cloudy
6:49 AM 21.2 °F 16.4 °F 21.2 °F 100% 30.39 in 4.0 mi NW 3.5 mph - N/A   Clear
6:53 AM 21.9 °F 15.7 °F 21.0 °F 96% 30.46 in 8.0 mi WNW 4.6 mph - N/A   Clear
7:15 AM 17.1 °F - 16.0 °F 96% 30.39 in 1.8 mi Calm Calm - N/A   Clear
7:24 AM 18.0 °F - 17.1 °F 96% 30.39 in 0.5 mi Calm Calm - N/A Fog Light Freezing Fog
7:41 AM 17.1 °F 11.7 °F 16.0 °F 96% 30.39 in 0.2 mi Variable 3.5 mph - N/A Fog Light Freezing Fog
7:49 AM 17.6 °F 12.3 °F 15.8 °F 93% 30.40 in 1.0 mi SSW 3.5 mph - N/A   Mist
7:51 AM 19.4 °F 14.3 °F 17.6 °F 93% 30.40 in 2.5 mi SSW 3.5 mph - N/A   Partly Cloudy
7:53 AM 19.0 °F 13.9 °F 18.0 °F 96% 30.47 in 3.0 mi SW 3.5 mph - N/A   Partly Cloudy
8:53 AM 27.0 °F 21.6 °F 27.0 °F 100% 30.47 in 10.0 mi SSE 4.6 mph - N/A   Clear
9:53 AM 33.1 °F - 30.9 °F 92% 30.46 in 10.0 mi Calm Calm - N/A   Clear
10:53 AM 42.1 °F 37.1 °F 34.0 °F 73% 30.46 in 10.0 mi NE 8.1 mph - N/A   Clear
11:53 AM 44.1 °F 42.5 °F 34.0 °F 68% 30.41 in 10.0 mi East 3.5 mph - N/A   Clear
12:53 PM 46.0 °F - 34.0 °F 63% 30.41 in 10.0 mi Calm Calm - N/A   Clear
1:53 PM 46.9 °F - 34.0 °F 61% 30.38 in 10.0 mi Variable 3.5 mph - N/A   Clear
2:53 PM 46.9 °F - 33.1 °F 59% 30.38 in 10.0 mi East 4.6 mph - N/A   Clear
3:53 PM 46.9 °F - 32.0 °F 56% 30.38 in 10.0 mi East 3.5 mph - N/A   Clear
4:53 PM 45.0 °F 43.5 °F 33.1 °F 63% 30.38 in 10.0 mi SSE 3.5 mph - N/A   Clear
5:53 PM 37.9 °F 33.5 °F 28.9 °F 70% 30.40 in 10.0 mi South 5.8 mph - N/A   Clear
6:53 PM 39.0 °F - 30.9 °F 73% 30.39 in 10.0 mi Calm Calm - N/A   Clear
7:53 PM 37.9 °F 34.4 °F 30.9 °F 76% 30.40 in 10.0 mi NNE 4.6 mph - N/A   Clear
8:53 PM 33.1 °F 28.7 °F 28.0 °F 82% 30.38 in 10.0 mi NW 4.6 mph - N/A   Clear
9:53 PM 26.1 °F 18.4 °F 24.1 °F 92% 30.38 in 10.0 mi SSW 6.9 mph - N/A   Clear
10:53 PM 26.1 °F 20.5 °F 23.0 °F 88% 30.36 in 10.0 mi NW 4.6 mph - N/A   Clear
11:53 PM 24.1 °F - 21.9 °F 91% 30.35 in 10.0 mi Calm Calm - N/A   Clear